Time,TemperatureF,DewpointF,PressureIn,WindDirection,WindDirectionDegrees,WindSpeedMPH,WindSpeedGustMPH,Humidity,HourlyPrecipIn,Conditions,Clouds,dailyrainin,SoftwareType,DateUTC
2013-03-11 00:02:00,56.0,31.0,30.20,ESE,110,2.0,5.0,39,0.00,,,0.00,,2013-03-11 04:02:00,
2013-03-11 00:12:00,56.0,31.0,30.20,ESE,110,2.0,5.0,39,0.00,,,0.00,,2013-03-11 04:12:00,
2013-03-11 00:22:00,56.0,31.0,30.19,SE,143,1.0,6.0,38,0.00,,,0.00,,2013-03-11 04:22:00,
2013-03-11 00:32:00,56.0,30.0,30.19,ESE,116,1.0,7.0,37,0.00,,,0.00,,2013-03-11 04:32:00,
2013-03-11 00:43:00,56.0,30.0,30.19,ESE,116,1.0,7.0,37,0.00,,,0.00,,2013-03-11 04:43:00,
2013-03-11 00:53:00,55.0,30.0,30.19,SE,130,5.0,8.0,38,0.00,,,0.00,,2013-03-11 04:53:00,
2013-03-11 01:03:00,55.0,30.0,30.19,SSE,156,5.0,9.0,38,0.00,,,0.00,,2013-03-11 05:03:00,
2013-03-11 01:12:00,55.0,30.0,30.19,SSE,156,5.0,9.0,38,0.00,,,0.00,,2013-03-11 05:12:00,
2013-03-11 01:22:00,55.0,28.0,30.18,ESE,123,6.0,11.0,35,0.00,,,0.00,,2013-03-11 05:22:00,
2013-03-11 01:32:00,54.0,28.0,30.18,SE,140,4.0,11.0,37,0.00,,,0.00,,2013-03-11 05:32:00,
2013-03-11 01:43:00,54.0,28.0,30.18,SE,140,4.0,11.0,37,0.00,,,0.00,,2013-03-11 05:43:00,
2013-03-11 01:52:00,53.0,28.0,30.17,SSE,160,4.0,9.0,38,0.00,,,0.00,,2013-03-11 05:52:00,
2013-03-11 02:02:00,53.0,27.0,30.16,SE,144,6.0,9.0,37,0.00,,,0.00,,2013-03-11 06:02:00,
2013-03-11 02:12:00,53.0,27.0,30.16,SE,144,6.0,9.0,37,0.00,,,0.00,,2013-03-11 06:12:00,
2013-03-11 02:22:00,53.0,27.0,30.17,SE,136,3.0,6.0,36,0.00,,,0.00,,2013-03-11 06:22:00,
2013-03-11 02:32:00,53.0,27.0,30.17,SE,139,3.0,7.0,36,0.00,,,0.00,,2013-03-11 06:32:00,
2013-03-11 02:42:00,53.0,27.0,30.17,SE,139,3.0,7.0,36,0.00,,,0.00,,2013-03-11 06:42:00,
2013-03-11 02:53:00,52.0,27.0,30.16,SE,138,6.0,8.0,37,0.00,,,0.00,,2013-03-11 06:53:00,
2013-03-11 03:03:00,52.0,28.0,30.16,SE,145,6.0,8.0,39,0.00,,,0.00,,2013-03-11 07:03:00,
2013-03-11 03:12:00,52.0,28.0,30.16,SE,145,6.0,8.0,39,0.00,,,0.00,,2013-03-11 07:12:00,
2013-03-11 03:22:00,51.0,27.0,30.16,SE,136,4.0,8.0,39,0.00,,,0.00,,2013-03-11 07:22:00,
2013-03-11 03:32:00,51.0,28.0,30.16,ESE,119,2.0,6.0,40,0.00,,,0.00,,2013-03-11 07:32:00,
2013-03-11 03:42:00,51.0,28.0,30.16,ESE,119,2.0,6.0,40,0.00,,,0.00,,2013-03-11 07:42:00,
2013-03-11 03:52:00,50.0,27.0,30.16,SE,133,5.0,7.0,40,0.00,,,0.00,,2013-03-11 07:52:00,
2013-03-11 04:02:00,50.0,27.0,30.14,ESE,123,3.0,6.0,40,0.00,,,0.00,,2013-03-11 08:02:00,
2013-03-11 04:12:00,50.0,27.0,30.14,ESE,123,3.0,6.0,40,0.00,,,0.00,,2013-03-11 08:12:00,
2013-03-11 04:22:00,50.0,27.0,30.14,SE,131,2.0,5.0,41,0.00,,,0.00,,2013-03-11 08:22:00,
2013-03-11 04:32:00,50.0,27.0,30.13,ESE,102,3.0,6.0,40,0.00,,,0.00,,2013-03-11 08:32:00,
2013-03-11 04:42:00,50.0,27.0,30.13,ESE,102,3.0,6.0,40,0.00,,,0.00,,2013-03-11 08:42:00,
2013-03-11 04:52:00,49.0,27.0,30.13,East,94,3.0,6.0,42,0.00,,,0.00,,2013-03-11 08:52:00,
2013-03-11 05:02:00,48.0,27.0,30.13,East,92,3.0,6.0,43,0.00,,,0.00,,2013-03-11 09:02:00,
2013-03-11 05:12:00,48.0,27.0,30.13,East,92,3.0,6.0,43,0.00,,,0.00,,2013-03-11 09:12:00,
2013-03-11 05:23:00,48.0,27.0,30.12,ESE,105,3.0,6.0,43,0.00,,,0.00,,2013-03-11 09:23:00,
2013-03-11 05:32:00,48.0,27.0,30.11,SE,139,4.0,8.0,43,0.00,,,0.00,,2013-03-11 09:32:00,
2013-03-11 05:42:00,48.0,27.0,30.11,SE,139,4.0,8.0,43,0.00,,,0.00,,2013-03-11 09:42:00,
2013-03-11 05:52:00,48.0,27.0,30.11,ESE,121,4.0,7.0,43,0.00,,,0.00,,2013-03-11 09:52:00,
2013-03-11 06:02:00,48.0,27.0,30.11,SE,144,2.0,7.0,43,0.00,,,0.00,,2013-03-11 10:02:00,
2013-03-11 06:12:00,48.0,27.0,30.11,SE,144,2.0,7.0,43,0.00,,,0.00,,2013-03-11 10:12:00,
2013-03-11 06:22:00,48.0,27.0,30.12,East,97,3.0,6.0,43,0.00,,,0.00,,2013-03-11 10:22:00,
2013-03-11 06:32:00,48.0,27.0,30.12,SE,132,5.0,9.0,43,0.00,,,0.00,,2013-03-11 10:32:00,
2013-03-11 06:42:00,48.0,27.0,30.12,SE,132,5.0,9.0,43,0.00,,,0.00,,2013-03-11 10:42:00,
2013-03-11 06:52:00,48.0,27.0,30.12,SSE,148,4.0,7.0,43,0.00,,,0.00,,2013-03-11 10:52:00,
2013-03-11 07:02:00,48.0,27.0,30.11,SE,126,4.0,6.0,44,0.00,,,0.00,,2013-03-11 11:02:00,
2013-03-11 07:12:00,48.0,27.0,30.11,SE,126,4.0,6.0,44,0.00,,,0.00,,2013-03-11 11:12:00,
2013-03-11 07:22:00,47.0,27.0,30.11,ESE,102,4.0,7.0,45,0.00,,,0.00,,2013-03-11 11:22:00,
2013-03-11 07:33:00,47.0,27.0,30.15,ESE,112,2.0,9.0,46,0.00,,,0.00,,2013-03-11 11:33:00,
2013-03-11 07:42:00,47.0,27.0,30.15,ESE,112,2.0,9.0,46,0.00,,,0.00,,2013-03-11 11:42:00,
2013-03-11 07:53:00,47.0,27.0,30.15,East,79,4.0,7.0,46,0.00,,,0.00,,2013-03-11 11:53:00,
2013-03-11 08:02:00,46.0,26.0,30.15,ESE,117,4.0,7.0,46,0.00,,,0.00,,2013-03-11 12:02:00,
2013-03-11 08:12:00,46.0,26.0,30.15,ESE,117,4.0,7.0,46,0.00,,,0.00,,2013-03-11 12:12:00,
2013-03-11 08:22:00,46.0,26.0,30.14,East,94,3.0,7.0,46,0.00,,,0.00,,2013-03-11 12:22:00,
2013-03-11 08:32:00,46.0,26.0,30.13,ESE,112,2.0,6.0,46,0.00,,,0.00,,2013-03-11 12:32:00,
2013-03-11 08:43:00,46.0,26.0,30.13,ESE,112,2.0,6.0,46,0.00,,,0.00,,2013-03-11 12:43:00,
2013-03-11 08:53:00,46.0,26.0,30.14,SE,130,5.0,9.0,46,0.00,,,0.00,,2013-03-11 12:53:00,
2013-03-11 09:02:00,47.0,27.0,30.14,SE,134,5.0,15.0,45,0.00,,,0.00,,2013-03-11 13:02:00,
2013-03-11 09:12:00,47.0,27.0,30.14,SE,134,5.0,15.0,45,0.00,,,0.00,,2013-03-11 13:12:00,
2013-03-11 09:22:00,47.0,26.0,30.14,SE,126,7.0,12.0,44,0.00,,,0.00,,2013-03-11 13:22:00,
2013-03-11 09:32:00,47.0,27.0,30.15,ESE,105,5.0,8.0,46,0.00,,,0.00,,2013-03-11 13:32:00,
2013-03-11 09:42:00,47.0,27.0,30.15,ESE,105,5.0,8.0,46,0.00,,,0.00,,2013-03-11 13:42:00,
2013-03-11 09:53:00,47.0,27.0,30.15,SE,132,2.0,7.0,46,0.00,,,0.00,,2013-03-11 13:53:00,
2013-03-11 10:02:00,47.0,27.0,30.15,ESE,111,3.0,6.0,45,0.00,,,0.00,,2013-03-11 14:02:00,
2013-03-11 10:12:00,47.0,27.0,30.15,ESE,111,3.0,6.0,45,0.00,,,0.00,,2013-03-11 14:12:00,
2013-03-11 10:22:00,47.0,26.0,30.15,SE,136,4.0,7.0,44,0.00,,,0.00,,2013-03-11 14:22:00,
2013-03-11 10:33:00,48.0,27.0,30.15,SSE,148,5.0,9.0,44,0.00,,,0.00,,2013-03-11 14:33:00,
2013-03-11 10:42:00,48.0,27.0,30.15,SSE,148,5.0,9.0,44,0.00,,,0.00,,2013-03-11 14:42:00,
2013-03-11 10:53:00,49.0,26.0,30.14,SE,128,7.0,14.0,41,0.00,,,0.00,,2013-03-11 14:53:00,
2013-03-11 11:02:00,49.0,26.0,30.14,SE,134,5.0,13.0,40,0.00,,,0.00,,2013-03-11 15:02:00,
2013-03-11 11:13:00,49.0,26.0,30.14,SE,134,5.0,13.0,40,0.00,,,0.00,,2013-03-11 15:13:00,
2013-03-11 11:22:00,49.0,25.0,30.14,SE,125,5.0,11.0,39,0.00,,,0.00,,2013-03-11 15:22:00,
2013-03-11 11:32:00,49.0,25.0,30.13,SSE,168,4.0,9.0,39,0.00,,,0.00,,2013-03-11 15:32:00,
2013-03-11 11:42:00,49.0,25.0,30.13,SSE,168,4.0,9.0,39,0.00,,,0.00,,2013-03-11 15:42:00,
2013-03-11 11:53:00,50.0,27.0,30.12,SSE,159,6.0,14.0,40,0.00,,,0.00,,2013-03-11 15:53:00,
2013-03-11 12:02:00,51.0,28.0,30.11,SE,124,7.0,13.0,40,0.00,,,0.00,,2013-03-11 16:02:00,
2013-03-11 12:13:00,51.0,28.0,30.11,SE,124,7.0,13.0,40,0.00,,,0.00,,2013-03-11 16:13:00,
2013-03-11 12:22:00,50.0,27.0,30.11,SE,134,10.0,19.0,41,0.00,,,0.00,,2013-03-11 16:22:00,
2013-03-11 12:32:00,51.0,28.0,30.11,ESE,121,7.0,14.0,41,0.00,,,0.00,,2013-03-11 16:32:00,
2013-03-11 12:43:00,51.0,28.0,30.11,ESE,121,7.0,14.0,41,0.00,,,0.00,,2013-03-11 16:43:00,
2013-03-11 12:52:00,51.0,29.0,30.11,ESE,112,8.0,13.0,43,0.00,,,0.00,,2013-03-11 16:52:00,
2013-03-11 13:02:00,52.0,33.0,30.10,ESE,105,6.0,16.0,48,0.00,,,0.00,,2013-03-11 17:02:00,
2013-03-11 13:16:00,52.0,33.0,30.10,ESE,105,6.0,16.0,48,0.00,,,0.00,,2013-03-11 17:16:00,
2013-03-11 13:27:00,53.0,34.0,30.09,ESE,116,4.0,10.0,48,0.00,,,0.00,,2013-03-11 17:27:00,
2013-03-11 13:36:00,53.0,32.0,30.08,ESE,111,6.0,9.0,45,0.00,,,0.00,,2013-03-11 17:36:00,
2013-03-11 13:42:00,53.0,32.0,30.08,ESE,111,6.0,9.0,45,0.00,,,0.00,,2013-03-11 17:42:00,
2013-03-11 13:53:00,54.0,36.0,30.07,ESE,109,7.0,12.0,51,0.00,,,0.00,,2013-03-11 17:53:00,
2013-03-11 14:02:00,54.0,40.0,30.07,SE,143,6.0,8.0,60,0.00,,,0.00,,2013-03-11 18:02:00,
2013-03-11 14:12:00,54.0,40.0,30.07,SE,143,6.0,8.0,60,0.00,,,0.00,,2013-03-11 18:12:00,
2013-03-11 14:23:00,55.0,43.0,30.07,SSE,165,5.0,9.0,63,0.00,,,0.00,,2013-03-11 18:23:00,
2013-03-11 14:32:00,54.0,42.0,30.06,SSE,157,4.0,12.0,64,0.00,,,0.00,,2013-03-11 18:32:00,
2013-03-11 14:42:00,54.0,42.0,30.06,SSE,157,4.0,12.0,64,0.00,,,0.00,,2013-03-11 18:42:00,
2013-03-11 14:53:00,55.0,43.0,30.05,SE,136,9.0,13.0,65,0.00,,,0.00,,2013-03-11 18:53:00,
2013-03-11 15:02:00,55.0,43.0,30.05,SE,135,5.0,9.0,65,0.00,,,0.00,,2013-03-11 19:02:00,
2013-03-11 15:12:00,55.0,43.0,30.05,SE,135,5.0,9.0,65,0.00,,,0.00,,2013-03-11 19:12:00,
2013-03-11 15:23:00,55.0,43.0,30.03,South,178,3.0,10.0,65,0.00,,,0.00,,2013-03-11 19:23:00,
2013-03-11 15:33:00,55.0,43.0,30.02,SSE,148,4.0,11.0,64,0.00,,,0.00,,2013-03-11 19:33:00,
2013-03-11 15:42:00,55.0,43.0,30.02,SSE,148,4.0,11.0,64,0.00,,,0.00,,2013-03-11 19:42:00,
2013-03-11 15:53:00,55.0,43.0,30.01,SE,125,7.0,12.0,65,0.00,,,0.00,,2013-03-11 19:53:00,
2013-03-11 16:02:00,55.0,44.0,30.00,ESE,123,3.0,12.0,66,0.00,,,0.00,,2013-03-11 20:02:00,
2013-03-11 16:12:00,55.0,44.0,30.00,ESE,123,3.0,12.0,66,0.00,,,0.00,,2013-03-11 20:12:00,
2013-03-11 16:22:00,55.0,45.0,30.00,SSE,150,4.0,8.0,68,0.00,,,0.00,,2013-03-11 20:22:00,
2013-03-11 16:32:00,55.0,45.0,29.99,SSE,149,4.0,10.0,69,0.00,,,0.00,,2013-03-11 20:32:00,
2013-03-11 16:43:00,55.0,45.0,29.99,SSE,149,4.0,10.0,69,0.00,,,0.00,,2013-03-11 20:43:00,
2013-03-11 16:53:00,56.0,46.0,30.01,South,188,0.0,5.0,69,0.00,,,0.00,,2013-03-11 20:53:00,
2013-03-11 17:03:00,56.0,46.0,29.97,East,98,3.0,9.0,69,0.00,,,0.00,,2013-03-11 21:03:00,
2013-03-11 17:13:00,56.0,46.0,29.97,East,98,3.0,9.0,69,0.00,,,0.00,,2013-03-11 21:13:00,
2013-03-11 17:22:00,56.0,46.0,29.98,East,94,2.0,6.0,69,0.00,,,0.00,,2013-03-11 21:22:00,
2013-03-11 17:32:00,56.0,46.0,29.97,ENE,67,3.0,5.0,69,0.00,,,0.00,,2013-03-11 21:32:00,
2013-03-11 17:44:00,56.0,46.0,29.97,ENE,67,3.0,5.0,69,0.00,,,0.00,,2013-03-11 21:44:00,
2013-03-11 17:53:00,56.0,46.0,29.97,SE,128,5.0,7.0,70,0.00,,,0.00,,2013-03-11 21:53:00,
2013-03-11 18:03:00,55.0,46.0,29.94,East,94,4.0,7.0,71,0.00,,,0.00,,2013-03-11 22:03:00,
2013-03-11 18:12:00,55.0,46.0,29.94,East,94,4.0,7.0,71,0.00,,,0.00,,2013-03-11 22:12:00,
2013-03-11 18:22:00,55.0,46.0,29.96,ESE,115,1.0,4.0,71,0.00,,,0.00,,2013-03-11 22:22:00,
2013-03-11 18:32:00,55.0,46.0,29.95,ESE,104,2.0,4.0,71,0.00,,,0.00,,2013-03-11 22:32:00,
2013-03-11 18:43:00,55.0,46.0,29.95,ESE,104,2.0,4.0,71,0.00,,,0.00,,2013-03-11 22:43:00,
2013-03-11 18:53:00,55.0,46.0,29.95,North,5,3.0,5.0,71,0.00,,,0.00,,2013-03-11 22:53:00,
2013-03-11 19:03:00,55.0,46.0,29.95,North,350,0.0,3.0,71,0.00,,,0.00,,2013-03-11 23:03:00,
2013-03-11 19:12:00,55.0,46.0,29.95,North,350,0.0,3.0,71,0.00,,,0.00,,2013-03-11 23:12:00,
2013-03-11 19:22:00,55.0,46.0,29.94,NNE,15,0.0,3.0,71,0.00,,,0.00,,2013-03-11 23:22:00,
2013-03-11 19:32:00,55.0,46.0,29.95,North,360,0.0,3.0,71,0.00,,,0.00,,2013-03-11 23:32:00,
2013-03-11 19:43:00,55.0,46.0,29.95,North,360,0.0,3.0,71,0.00,,,0.00,,2013-03-11 23:43:00,
2013-03-11 19:54:00,55.0,46.0,29.94,East,92,6.0,8.0,72,0.00,,,0.00,,2013-03-11 23:54:00,
2013-03-11 20:02:00,55.0,46.0,29.94,ESE,115,0.0,6.0,72,0.00,,,0.00,,2013-03-12 00:02:00,
2013-03-11 20:12:00,55.0,46.0,29.94,ESE,115,0.0,6.0,72,0.00,,,0.00,,2013-03-12 00:12:00,
2013-03-11 20:23:00,55.0,47.0,29.95,ESE,116,1.0,4.0,73,0.00,,,0.00,,2013-03-12 00:23:00,
2013-03-11 20:33:00,55.0,47.0,29.94,South,186,1.0,4.0,74,0.00,,,0.00,,2013-03-12 00:33:00,
2013-03-11 20:42:00,55.0,47.0,29.94,South,186,1.0,4.0,74,0.00,,,0.00,,2013-03-12 00:42:00,
2013-03-11 20:54:00,55.0,47.0,29.92,ESE,115,5.0,8.0,74,0.00,,,0.00,,2013-03-12 00:54:00,
2013-03-11 21:02:00,55.0,47.0,29.93,SE,132,3.0,5.0,74,0.00,,,0.00,,2013-03-12 01:02:00,
2013-03-11 21:12:00,55.0,47.0,29.93,SE,132,3.0,5.0,74,0.00,,,0.00,,2013-03-12 01:12:00,
2013-03-11 21:22:00,55.0,47.0,29.92,SE,127,2.0,6.0,74,0.00,,,0.00,,2013-03-12 01:22:00,
2013-03-11 21:33:00,55.0,47.0,29.91,SE,130,5.0,9.0,74,0.00,,,0.00,,2013-03-12 01:33:00,
2013-03-11 21:42:00,55.0,47.0,29.91,SE,130,5.0,9.0,74,0.00,,,0.00,,2013-03-12 01:42:00,
2013-03-11 21:53:00,55.0,47.0,29.90,SE,134,3.0,8.0,74,0.00,,,0.00,,2013-03-12 01:53:00,
2013-03-11 22:02:00,56.0,48.0,29.91,SE,141,5.0,7.0,74,0.00,,,0.00,,2013-03-12 02:02:00,
2013-03-11 22:12:00,56.0,48.0,29.91,SE,141,5.0,7.0,74,0.00,,,0.00,,2013-03-12 02:12:00,
2013-03-11 22:22:00,57.0,48.0,29.91,SE,128,4.0,7.0,73,0.00,,,0.00,,2013-03-12 02:22:00,
2013-03-11 22:32:00,57.0,48.0,29.90,SE,136,2.0,8.0,73,0.00,,,0.00,,2013-03-12 02:32:00,
2013-03-11 22:42:00,57.0,48.0,29.90,SE,136,2.0,8.0,73,0.00,,,0.00,,2013-03-12 02:42:00,
2013-03-11 22:52:00,58.0,49.0,29.90,SE,125,6.0,8.0,73,0.00,,,0.00,,2013-03-12 02:52:00,
2013-03-11 23:02:00,59.0,50.0,29.90,SE,132,9.0,17.0,71,0.00,,,0.00,,2013-03-12 03:02:00,
2013-03-11 23:12:00,59.0,50.0,29.90,SE,132,9.0,17.0,71,0.00,,,0.00,,2013-03-12 03:12:00,
2013-03-11 23:22:00,60.0,51.0,29.89,SSE,148,9.0,14.0,71,0.00,,,0.00,,2013-03-12 03:22:00,
2013-03-11 23:32:00,60.0,51.0,29.89,SSE,154,4.0,17.0,71,0.00,,,0.00,,2013-03-12 03:32:00,
2013-03-11 23:42:00,60.0,51.0,29.89,SSE,154,4.0,17.0,71,0.00,,,0.00,,2013-03-12 03:42:00,
2013-03-11 23:53:00,60.0,51.0,29.89,South,180,5.0,11.0,71,0.00,,,0.00,,2013-03-12 03:53:00,